GW5679 Weather Reports


time (UTC)temp
F
wind
direction
speed
knots
gust
knots
rain 1hr
in
rain 24hr
in
rain mn
in
humidity
%
barometer
mb
20260502182615 73 18 7.0 13.9 0.00 0.00 0.00 41 1019.0
20260502182111 73 4 7.8 13.9 0.00 0.00 0.00 42 1018.9
20260502181609 73 332 8.7 12.2 0.00 0.00 0.00 44 1019.0
20260502181108 72 10 12.2 20.0 0.00 0.00 0.00 42 1019.0
20260502180604 73 18 11.3 18.2 0.00 0.00 0.00 43 1018.9
20260502164007 71 24 5.2 13.9 0.00 0.00 0.00 47 1019.4
20260502163503 70 335 6.1 8.7 0.00 0.00 0.00 51 1019.5
20260502163000 70 37 5.2 13.9 0.00 0.00 0.00 51 1019.4
20260502162457 69 341 5.2 9.6 0.00 0.00 0.00 50 1019.4
20260502161954 69 357 7.8 12.2 0.00 0.00 0.00 53 1019.4
20260502161450 68 38 5.2 12.2 0.00 0.00 0.00 53 1019.4
20260502160949 68 35 6.1 12.2 0.00 0.00 0.00 55 1019.4
20260502160446 68 330 4.3 11.3 0.00 0.00 0.00 56 1019.4
20260502151929 65 38 5.2 7.8 0.00 0.00 0.00 67 1019.3
20260502151426 65 14 7.8 13.0 0.00 0.00 0.00 65 1019.3
20260502150924 66 48 4.3 13.0 0.00 0.00 0.00 66 1019.2
20260502150420 64 38 6.1 11.3 0.00 0.00 0.00 68 1019.6
20260502130306 56 309 3.5 7.8 0.00 0.00 0.00 87 1017.9
20260502123751 55 334 4.3 7.8 0.00 0.00 0.00 88 1017.8
20260502123248 55 18 3.5 9.6 0.00 0.00 0.00 89 1017.7
20260502122745 55 1 4.3 7.8 0.00 0.00 0.00 89 1017.7
20260502122241 55 99 0.9 3.5 0.00 0.00 0.00 89 1017.6
20260502121740 54 20 2.6 6.1 0.00 0.00 0.00 89 1017.4
20260502121237 54 35 3.5 8.7 0.00 0.00 0.00 89 1017.4
20260502120733 54 13 4.3 5.2 0.00 0.00 0.00 89 1017.4
20260502120230 54 343 2.6 3.5 0.00 0.00 0.00 89 1017.3
20260502115728 54 31 3.5 3.5 0.00 0.00 0.00 89 1017.3
20260502115225 54 13 3.5 3.5 0.00 0.00 0.00 89 1017.2
20260502114720 54 349 3.5 5.2 0.00 0.00 0.00 89 1017.1
20260502114218 54 17 2.6 6.1 0.00 0.00 0.00 89 1017.3
20260502113715 54 319 1.7 1.7 0.00 0.00 0.00 89 1017.3
20260502113213 54 30 3.5 3.5 0.00 0.00 0.00 89 1017.1
20260502112711 54 327 2.6 5.2 0.00 0.00 0.00 89 1017.1
20260502112208 54 20 5.2 6.1 0.00 0.00 0.00 89 1017.1
20260502111705 54 359 4.3 6.1 0.00 0.00 0.00 88 1017.0
20260502111203 54 34 2.6 3.5 0.00 0.00 0.00 88 1016.8
20260502110700 55 41 3.5 5.2 0.00 0.00 0.00 88 1016.8
20260502110157 55 305 2.6 7.8 0.00 0.00 0.00 88 1016.6
20260502105655 55 355 3.5 6.1 0.00 0.00 0.00 88 1016.8
20260502105151 55 17 3.5 7.0 0.00 0.00 0.00 88 1016.3
20260502104649 55 8 5.2 9.6 0.00 0.00 0.00 87 1016.6
20260502104146 55 313 3.5 5.2 0.00 0.00 0.00 87 1016.3
20260502103643 55 0 2.6 5.2 0.00 0.00 0.00 87 1016.3
20260502103141 55 8 3.5 7.0 0.00 0.00 0.00 87 1016.3
20260502102638 55 28 3.5 6.1 0.00 0.00 0.00 87 1016.3
20260502102135 55 349 3.5 6.1 0.00 0.00 0.00 86 1016.1
20260502101633 55 34 3.5 6.1 0.00 0.00 0.00 86 1016.2
20260502101131 55 54 2.6 5.2 0.00 0.00 0.00 86 1015.9
20260502100629 55 70 3.5 6.1 0.00 0.00 0.00 86 1016.0
20260502100127 55 39 3.5 6.1 0.00 0.00 0.00 86 1015.7
20260502091101 56 49 2.6 5.2 0.00 0.00 0.00 84 1015.2
20260502090558 56 30 2.6 5.2 0.00 0.00 0.00 84 1015.0
20260502071452 56 346 5.2 8.7 0.00 0.00 0.00 88 1014.7
20260502070950 57 12 6.1 7.0 0.00 0.00 0.00 88 1014.8
20260502070448 57 62 2.6 8.7 0.00 0.00 0.00 88 1014.9
20260502065946 57 3 9.6 11.3 0.00 0.00 0.00 88 1014.9
20260502065444 57 14 5.2 7.8 0.00 0.00 0.00 88 1015.0
20260502064942 57 24 9.6 15.6 0.00 0.00 0.00 88 1014.7
20260502064440 57 350 7.8 12.2 0.00 0.00 0.00 88 1014.9
20260502063937 57 53 1.7 9.6 0.00 0.00 0.00 88 1014.8
20260502063434 57 342 7.8 13.0 0.00 0.00 0.00 88 1014.9
20260502062932 57 359 6.1 13.0 0.00 0.00 0.00 88 1014.7
20260502062429 57 36 8.7 12.2 0.00 0.00 0.00 88 1014.4
20260502061928 57 12 7.8 11.3 0.00 0.00 0.00 88 1014.4
20260502061425 57 28 4.3 13.9 0.00 0.00 0.00 88 1014.6
20260502060921 57 15 5.2 12.2 0.00 0.00 0.00 88 1014.4
20260502060416 57 17 8.7 11.3 0.00 0.00 0.00 88 1014.5
20260502055913 57 46 6.1 14.8 0.00 0.00 0.00 88 1014.4
20260502055411 57 344 6.1 14.8 0.00 0.00 0.00 88 1014.3
20260502054911 57 44 7.8 14.8 0.00 0.00 0.00 88 1014.5
20260502054408 57 3 4.3 11.3 0.00 0.00 0.00 89 1014.5
20260502053905 57 8 3.5 7.0 0.00 0.00 0.00 89 1014.3
20260502053403 57 92 3.5 8.7 0.00 0.00 0.00 89 1014.4
20260502052900 57 28 5.2 9.6 0.00 0.00 0.00 89 1014.3
20260502052358 57 45 8.7 12.2 0.00 0.00 0.00 89 1014.6
20260502051855 57 35 6.1 9.6 0.00 0.00 0.00 89 1014.5
20260502051354 57 52 4.3 9.6 0.00 0.00 0.00 89 1014.4
20260502050850 57 355 5.2 7.8 0.00 0.00 0.00 89 1014.4
20260502050347 57 21 7.8 14.8 0.00 0.00 0.00 89 1014.4
20260502045844 57 37 7.8 12.2 0.00 3.45 3.45 89 1014.4
20260502045340 57 17 7.8 14.8 0.00 3.45 3.45 90 1014.4
20260502044838 57 357 9.6 15.6 0.00 3.45 3.45 90 1014.5
20260502044333 57 17 9.6 14.8 0.00 3.45 3.45 90 1014.4
20260502043831 57 311 9.6 12.2 0.00 3.45 3.45 90 1014.4
20260502043329 57 31 5.2 14.8 0.00 3.45 3.45 91 1014.5
20260502042828 57 56 9.6 14.8 0.00 3.45 3.45 91 1014.6
20260502042326 57 320 4.3 7.0 0.00 3.45 3.45 91 1014.5
20260502041823 57 357 7.0 14.8 0.00 3.45 3.45 91 1014.4
20260502041320 57 50 5.2 11.3 0.00 3.45 3.45 92 1014.4
20260502040817 57 35 5.2 12.2 0.00 3.45 3.45 92 1014.2
20260502040314 57 327 7.8 12.2 0.00 3.45 3.45 92 1014.4
20260502035810 57 33 8.7 11.3 0.00 3.45 3.45 92 1014.3
20260502035307 57 287 8.7 14.8 0.00 3.45 3.45 93 1014.3
20260502034804 57 7 6.1 13.0 0.00 3.45 3.45 93 1014.3
20260502034303 57 345 9.6 13.0 0.00 3.45 3.45 93 1014.1
20260502033800 57 46 7.0 9.6 0.00 3.45 3.45 93 1014.0
20260502033258 57 2 8.7 11.3 0.00 3.45 3.45 93 1014.1
20260502032754 58 22 7.8 14.8 0.00 3.45 3.45 93 1013.9
20260502032251 57 121 3.5 13.9 0.00 3.45 3.45 93 1014.0
20260502031749 57 32 7.0 9.6 0.00 3.45 3.45 93 1013.7
20260502031246 57 26 4.3 11.3 0.00 3.45 3.45 93 1013.4
20260502030745 57 346 3.5 12.2 0.00 3.45 3.45 94 1013.5
20260502030242 57 31 5.2 13.0 0.00 3.45 3.45 94 1012.7
20260502025739 57 39 3.5 13.0 0.00 3.45 3.45 94 1012.8
20260502025237 57 49 12.2 18.2 0.00 3.45 3.45 94 1012.6
20260502024735 57 32 10.4 13.0 0.00 3.45 3.45 94 1012.8
20260502024232 57 36 3.5 13.0 0.00 3.45 3.45 94 1012.8
20260502023730 57 247 10.4 13.9 0.00 3.45 3.45 95 1012.4
20260502023228 58 3 8.7 14.8 0.00 3.45 3.45 95 1012.4
20260502022725 58 34 5.2 11.3 0.00 3.45 3.45 95 1012.5
20260502022221 58 36 6.1 13.9 0.07 3.45 3.45 95 1012.6
20260502021719 58 22 6.1 9.6 0.12 3.45 3.45 95 1012.7
20260502021216 58 75 8.7 19.1 0.12 3.44 3.44 95 1012.7
20260502020713 59 31 6.1 8.7 0.12 3.43 3.43 95 1012.7
20260502020210 59 34 5.2 7.0 0.05 3.42 3.42 95 1012.4
20260502015708 59 339 4.3 9.6 0.07 3.41 3.41 95 1012.4
20260502015204 59 328 5.2 11.3 0.07 3.41 3.41 95 1012.5
20260502014702 59 349 8.7 9.6 0.00 3.40 3.40 95 1012.5
20260502014158 59 21 7.0 7.8 0.00 3.40 3.40 95 1012.4
20260502013654 59 22 5.2 9.6 0.00 3.40 3.40 95 1012.1
20260502013149 59 347 6.1 7.0 0.00 3.40 3.40 95 1012.1
20260502012647 59 336 9.6 13.9 0.05 3.40 3.40 95 1011.5
20260502012146 59 8 9.6 15.6 0.05 3.40 3.40 95 1011.5
20260502011642 59 28 5.2 9.6 0.07 3.39 3.39 95 1011.3
20260502011137 59 22 5.2 9.6 0.12 3.39 3.39 95 1011.3
20260502010635 59 30 6.1 8.7 0.12 3.38 3.38 95 1011.3
20260502010132 59 310 11.3 13.0 0.12 3.37 3.37 95 1011.8
20260502005629 59 330 6.1 7.8 0.05 3.36 3.36 95 1011.6
20260502005127 59 305 5.2 7.0 0.00 3.35 3.35 95 1011.3
20260502004622 59 345 7.0 8.7 0.00 3.35 3.35 95 1010.9
20260502004119 59 125 1.7 11.3 0.00 3.35 3.35 95 1010.5
20260502003618 59 48 7.0 13.0 0.07 3.35 3.35 95 1010.4
20260502003114 59 81 5.2 9.6 0.07 3.35 3.35 95 1010.2
20260502002610 59 350 9.6 12.2 0.00 3.34 3.34 95 1010.4
20260502002108 59 16 7.8 8.7 0.05 3.34 3.34 95 1010.3
20260502001605 60 302 7.8 12.2 0.19 3.34 3.34 95 1010.5
20260502001102 60 0 7.0 11.3 0.19 3.33 3.33 95 1010.4
20260502000601 60 0 3.5 6.1 0.24 3.31 3.31 95 1010.4
20260502000057 60 41 4.3 11.3 0.40 3.29 3.29 95 1010.3
20260501235553 60 4 7.8 12.2 0.31 3.26 3.26 95 1010.6
20260501235049 60 48 8.7 12.2 0.14 3.22 3.22 95 1010.5
20260501234545 60 31 5.2 14.8 0.07 3.21 3.21 95 1010.6
20260501234043 60 82 6.1 13.0 0.00 3.20 3.20 95 1009.8
20260501233541 60 11 10.4 13.0 0.05 3.20 3.20 95 1009.4
20260501233037 60 39 3.5 7.8 0.05 3.20 3.20 95 1009.1
20260501232533 60 40 6.1 12.2 0.07 3.19 3.19 95 1009.3
20260501232031 60 7 6.1 11.3 0.12 3.19 3.19 95 1009.1
20260501231529 60 23 6.1 13.9 0.05 3.18 3.18 95 1010.1
20260501231027 60 10 2.6 14.8 0.07 3.17 3.17 96 1010.2
20260501230526 60 48 5.2 9.6 0.12 3.17 3.17 96 1009.9
20260501230023 61 28 8.7 12.2 0.00 3.15 3.15 96 1009.7
20260501225520 61 13 6.1 12.2 0.00 3.15 3.15 96 1009.5
20260501225016 61 86 3.5 8.7 0.00 3.15 3.15 96 1009.2
20260501224514 61 41 6.1 8.7 0.00 3.15 3.15 96 1009.4
20260501224011 61 57 3.5 8.7 0.00 3.15 3.15 96 1009.2
20260501223507 61 38 3.5 6.1 0.00 3.15 3.15 96 1009.2
20260501223003 61 70 2.6 8.7 0.00 3.15 3.15 96 1009.1
20260501222500 61 43 7.8 14.8 0.00 3.15 3.15 96 1008.9
20260501221956 61 26 7.0 13.9 0.00 3.15 3.15 96 1009.0
20260501221453 61 354 8.7 12.2 0.07 3.15 3.15 96 1009.2
20260501220951 62 20 10.4 14.8 0.07 3.15 3.15 96 1009.3
20260501220449 62 3 9.6 12.2 0.12 3.14 3.14 96 1009.4
20260501215944 62 12 10.4 15.6 0.47 3.14 3.14 96 1009.3
20260501215442 62 34 3.5 6.1 0.59 3.12 3.12 96 1009.6
20260501214937 62 2 5.2 7.8 0.59 3.05 3.05 96 1009.8
20260501214432 61 24 7.0 9.6 0.71 3.01 3.01 96 1010.1
20260501213928 62 56 7.0 13.9 0.64 2.94 2.94 96 1009.5
20260501213426 62 26 6.1 13.0 0.97 2.89 2.89 96 1009.5
20260501212921 62 39 8.7 9.6 0.59 2.81 2.81 96 1009.7
20260501212418 62 57 8.7 14.8 0.42 2.73 2.73 96 1009.6
20260501211914 62 344 10.4 13.9 0.31 2.71 2.71 96 1009.5
20260501211412 62 352 5.2 6.1 0.05 2.66 2.66 96 1009.5
20260501210909 62 96 0.9 5.2 0.05 2.66 2.66 96 1009.4
20260501210406 62 48 5.2 8.7 0.00 2.65 2.65 96 1008.8
20260501205902 62 44 5.2 11.3 0.07 2.65 2.65 96 1008.2
20260501205359 62 316 4.3 11.3 0.12 2.65 2.65 96 1007.9
20260501204856 62 51 3.5 7.0 0.17 2.64 2.64 96 1007.9
20260501204352 62 22 3.5 5.2 0.24 2.62 2.62 96 1008.1
20260501203848 62 25 5.2 12.2 0.50 2.61 2.61 96 1008.0
20260501203346 63 12 9.6 13.0 0.35 2.57 2.57 96 1008.7
20260501202843 62 63 6.1 7.8 0.24 2.53 2.53 96 1009.4
20260501202340 63 346 9.6 11.3 0.59 2.51 2.51 96 1008.8
20260501201837 63 41 3.5 11.3 0.50 2.48 2.48 96 1008.8
20260501201333 63 33 3.5 6.1 0.12 2.41 2.41 96 1009.0
20260501200830 63 30 4.3 9.6 0.05 2.40 2.40 96 1008.2
20260501200327 63 37 4.3 7.8 0.00 2.39 2.39 96 1007.7
20260501195825 63 51 8.7 9.6 0.00 2.39 2.39 96 1007.8
20260501195320 63 2 5.2 12.2 0.12 2.39 2.39 96 1007.9
20260501194817 63 41 1.7 6.1 0.17 2.38 2.38 96 1007.6
20260501194313 63 16 7.8 9.6 0.50 2.37 2.37 96 1007.9
20260501193809 63 127 0.9 3.5 0.47 2.36 2.36 96 1007.6
20260501193308 63 359 3.5 7.8 0.12 2.29 2.29 96 1007.6
20260501192805 63 6 5.2 7.8 0.19 2.28 2.28 96 1008.1
20260501192305 63 33 3.5 6.1 0.12 2.27 2.27 96 1007.7
20260501191759 63 32 5.2 7.0 0.05 2.25 2.25 96 1008.1
20260501191256 63 341 4.3 8.7 0.05 2.25 2.25 96 1008.6
20260501190753 63 115 3.5 6.1 0.00 2.24 2.24 96 1008.1
20260501190248 63 135 2.6 7.0 0.00 2.24 2.24 96 1007.7
20260501185744 63 72 2.6 12.2 0.07 2.24 2.24 96 1007.2
20260501185240 63 101 2.6 6.1 0.31 2.23 2.23 96 1007.0
20260501184737 63 138 2.6 3.5 2.10 2.22 2.22 96 1008.3
20260501184232 63 13 3.5 6.1 2.46 2.14 2.14 95 1008.8
20260501183728 63 86 5.2 7.0 0.54 1.82 1.82 96 1008.1
20260501183226 63 251 4.3 9.6 0.05 1.73 1.73 96 1010.4
20260501182722 63 299 5.2 7.8 0.12 1.73 1.73 95 1008.5